Volver al catálogo

STARLINK-37036

ActivoComunicacionesVLEO
NORAD 68077·PAYLOAD·🇺🇸 United States

Lanzado Mar 4, 2026 desde Vandenberg Space Force Base

Loading…

Próximos Pases (próximas 24 horas)

TLE

ActualizadoSource: CelesTrak SupGP

Época: Sep 15, 2026, 03:57 UTC

1 68077C 26042J   26258.16506944  .00068877  00000+0  20342-2 0  2586
2 68077  53.1592  12.8451 0001138  91.0478 354.0040 15.34368761    19

Sigue STARLINK-37036 en tiempo real con AllMySat

Download on the App Store